Flag for Austria Weather past 2 weeks in Zell am See, Salzburg, Austria

Now
57 °F

Passing clouds.


Feels Like: 55 °F
Forecast: 60 / 68 °F
Wind: 10 mph from Southeast

Location: Salzburg-Flughafen

Current Time: Aug 29, 2014 at 6:00:37 AM

Latest Report: Aug 29, 2014 at 5:20 AM


Visibility: N/A

Pressure: 30.09 "Hg

Humidity: 88%

Dew point: 54 °F

Location of Zell am SeeLocation

Historic Weather in Zell am See — Graph

°F

Zell am See temperature yesterday

Maximum temperature yesterday: 72 °F (at 2:50 PM)
Minimum temperature yesterday: 46 °F (at 3:50 AM)
Average temperature yesterday: 59 °F

Past Weeks' High & Low Weather Summary

 TemperatureHumidityPressure
High73 °F (Aug 18, 12:50 PM)100% (Aug 14, 6:50 AM)30.18 "Hg (Aug 14, 6:50 AM)
Low46 °F (Aug 25, 4:50 AM)41% (Aug 17, 3:50 PM)29.77 "Hg (Aug 26, 7:50 AM)
Average59 °F80%30.01 "Hg
* Reported Aug 14 4:20 AM — Aug 29 4:50 AM, Zell am See, Weather by CustomWeather, © 2014

Note: Actual official high and low records may vary slightly from our data, if they occured in-between our weather recording intervals... More about our weather records

Advertising

Zell am See weather history for previous 24 hours

 ConditionsComfort  
Time TempWeatherWind HumidityBarometerVisibility
4:50 AM
Aug 29
57 °FPassing clouds.10 mph88%30.09 "HgN/A
4:20 AM59 °FPassing clouds.8 mph82%30.09 "HgN/A
3:50 AM57 °FPassing clouds.7 mph88%30.09 "HgN/A
3:20 AM59 °FPassing clouds.7 mph82%30.09 "HgN/A
2:50 AM59 °FOvercast.7 mph82%30.09 "HgN/A
2:20 AM59 °FPartly cloudy.6 mph82%30.09 "HgN/A
1:50 AM57 °FPassing clouds.5 mph88%30.09 "HgN/A
1:20 AM57 °FPassing clouds.3 mph88%30.09 "HgN/A
12:50 AM59 °FPassing clouds.6 mph88%30.09 "HgN/A
12:20 AM59 °FPassing clouds.5 mph88%30.09 "HgN/A
11:50 PM
Aug 28
59 °FPassing clouds.6 mph88%30.09 "HgN/A
11:20 PM59 °FPassing clouds.3 mph88%30.09 "HgN/A
10:50 PM59 °FPassing clouds.6 mph88%30.09 "HgN/A
10:20 PM57 °FPartly cloudy.5 mph94%30.09 "HgN/A
9:50 PM59 °FPassing clouds.5 mph88%30.09 "HgN/A
9:20 PM61 °FPassing clouds.6 mph83%30.09 "HgN/A
8:50 PM61 °FScattered clouds.2 mph83%30.09 "HgN/A
8:20 PM63 °FPassing clouds.2 mph83%30.07 "HgN/A
7:50 PM66 °FScattered clouds.2 mph68%30.07 "HgN/A
7:20 PM68 °FScattered clouds.5 mph60%30.07 "HgN/A
6:50 PM70 °FScattered clouds.6 mph57%30.07 "HgN/A
6:20 PM72 °FScattered clouds.6 mph53%30.07 "HgN/A
5:50 PM72 °FScattered clouds.6 mph53%30.07 "HgN/A
5:20 PM72 °FScattered clouds.6 mph53%30.07 "HgN/A
4:50 PM72 °FPassing clouds.6 mph50%30.07 "HgN/A
4:20 PM72 °FPassing clouds.6 mph57%30.07 "HgN/A
3:50 PM72 °FPassing clouds.7 mph53%30.07 "HgN/A
3:20 PM72 °FPassing clouds.3 mph61%30.07 "HgN/A
2:50 PM72 °FPassing clouds.5 mph57%30.09 "HgN/A
2:20 PM70 °FPassing clouds.5 mph57%30.09 "HgN/A
1:20 PM68 °FPassing clouds.6 mph60%30.09 "HgN/A
12:50 PM68 °FPassing clouds.2 mph56%30.09 "HgN/A
12:20 PM68 °FPassing clouds.5 mph69%30.09 "HgN/A
11:50 AM66 °FPassing clouds.2 mph73%30.12 "HgN/A
11:20 AM64 °FPassing clouds.2 mph73%30.12 "HgN/A
10:50 AM63 °FScattered clouds.3 mph73%30.12 "HgN/A
10:20 AM63 °FScattered clouds.2 mph73%30.12 "HgN/A
9:50 AM61 °FPassing clouds.3 mph77%30.12 "HgN/A
9:20 AM59 °FPassing clouds.6 mph82%30.12 "HgN/A
8:50 AM57 °FPassing clouds.5 mph82%30.12 "HgN/A
8:20 AM55 °FPassing clouds.5 mph94%30.12 "HgN/A
7:50 AM54 °FLight fog.1 mph88%30.12 "HgN/A
7:20 AM50 °FLight fog.2 mph94%30.12 "HgN/A
6:50 AM46 °FCool.2 mph100%30.12 "HgN/A
6:20 AM46 °FFog.2 mph100%30.09 "HgN/A
Weather by CustomWeather, © 2014

See weather overviewHow to use our weather pages